sat.trackr.live / text

‹ back to catalog

STARLINK-3326

NORAD 50844 · 2022-001AT

PAYLOAD ACTIVE UNKNOWN

§ Identity

Operator
Country
US
Launch date
2022-01-06
Launch site
AFETR
Launch vehicle
Mass (kg)
RCS (m²)

Purposes: comms

External: N2YO · Heavens-Above · Gunter

§ Orbital elements

Epoch: 2026-09-19T22:06:31.076064Z

Period
93.72 min
Inclination
53.1589°
Eccentricity
0.0001080
Mean motion
15.36421890 rev/d
Perigee alt
456.0 km
Apogee alt
457.4 km
Semi-major
6,834.8 km
B*
8.7436e-4
RAAN
12.2208°
Arg perigee
0.5813°
Mean anomaly
359.5191°
Rev number
25,979

§ Raw data

STARLINK-33261 50844U 22001AT  26262.92119301  .00031261  00000+0  87436-3 0  99932 50844  53.1589  12.2208 0001080   0.5813 359.5191 15.36421890259799

JSON: /api/v1/satellites/50844 · /tle

For live sub-satellite position, see the globe view (requires WebGL).

§ Visibility from observer

Set your observer location to see the next 7 days of passes ≥ 10°. The values pass through the URL so the page stays shareable.

No JS? Fill the form by hand. The geolocation button needs JavaScript.